Calgary Springbank, Alberta

6:44 AM MDT on March 24, 2017 (GMT -0600)
Springbank

Weather History for CYBW - July, 2013

Change the Weather History Date:

Tuesday, July 23, 2013

  Actual Average Record
Temperature  
Mean Temperature 60 °F -  
Max Temperature 72 °F 69 °F 86 °F (2007)
Min Temperature 48 °F 42 °F 35 °F (2011)
Degree Days  
Heating Degree Days 5    
Growing Degree Days 10 (Base 50)    
Moisture  
Dew Point 58 °F    
Average Humidity 84    
Maximum Humidity 100    
Minimum Humidity 64    
Precipitation  
Precipitation 0.16 in - - ()
Sea Level Pressure  
Sea Level Pressure 30.14 in    
Wind  
Wind Speed 5 mph ()    
Max Wind Speed 14 mph    
Max Gust Speed 18 mph    
Visibility 12.3 miles    
Events Rain , Thunderstorm    
Averages and records for this station are not official NWS values.
T = Trace of Precipitation, MM = Missing Value Source: Averaged Metar Reports

Daily Weather History Graph

Daily Weather History Graph

Search for Another Location

Airport or City:

Trip Planner

Search our weather history database for the weather conditions in past years. The results will help you decide how hot, cold, wet, or windy it might be!

Date:

Astronomy

Jul. 23, 2013 Rise Set
Actual Time 5:50 AM MDT 9:36 PM MDT
Civil Twilight 5:08 AM MDT 10:18 PM MDT
Nautical Twilight 4:10 AM MDT 11:16 PM MDT
Astronomical Twilight 2:35 AM MDT 12:47 AM MDT
Moon 9:47 PM MDT (7/23) 7:19 AM MDT (7/23)
Length of Visible Light 17h 09m
Length of Day
15h 46m
Full, 99% of the Moon is Illuminated
Jul 23
Full
Jul 29
Last Quarter
Aug 6
New
Aug 14
First Quarter
Aug 20
Full

Hourly Weather History & Observations

Time (MDT) Temp. Dew Point Humidity Pressure Visibility Wind Dir Wind Speed Gust Speed Precip Events Conditions
5:00 AM 50.0 °F 50.0 °F 100% 30.12 in 6.0 mi WNW 4.6 mph - N/A   Overcast
6:00 AM 53 °F 53 °F 99% 30.13 in 3 mi NW 5.8 mph - -   Mist
6:00 AM 53.6 °F 53.6 °F 100% 30.13 in 3.0 mi NW 5.8 mph - N/A   Overcast
7:00 AM 55.4 °F 55.4 °F 100% 30.14 in 3.0 mi NW 4.6 mph - N/A   Overcast
8:00 AM 57.2 °F 57.2 °F 100% 30.16 in 3.0 mi WNW 3.5 mph - N/A   Overcast
8:07 AM 57.2 °F 55.4 °F 94% 30.16 in 3.0 mi West 2.3 mph - N/A   Overcast
8:34 AM 59.0 °F 57.2 °F 94% 30.16 in 6.0 mi Variable 2.3 mph - N/A   Mostly Cloudy
9:00 AM 59.0 °F 57.2 °F 94% 30.16 in 6.0 mi Calm Calm - N/A   Overcast
10:00 AM 60.8 °F 57.2 °F 88% 30.16 in 10.0 mi Calm Calm - N/A   Mostly Cloudy
10:51 AM 64.4 °F 59.0 °F 83% 30.15 in 12.0 mi ESE 4.6 mph - N/A   Mostly Cloudy
11:00 AM 64.4 °F 59.0 °F 83% 30.15 in 15.0 mi East 3.5 mph - N/A   Mostly Cloudy
12:00 PM 68 °F 59 °F 65% 30.14 in 15 mi East 2.3 mph - -   Mostly Cloudy
12:00 PM 68.0 °F 59.0 °F 73% 30.14 in 15.0 mi East 2.3 mph - N/A   Mostly Cloudy
1:00 PM 71.6 °F 60.8 °F 69% 30.14 in 15.0 mi ESE 5.8 mph - N/A   Mostly Cloudy
2:00 PM 71.6 °F 59.0 °F 64% 30.13 in 15.0 mi East 11.5 mph 18.4 mph N/A   Overcast
2:40 PM 66.2 °F 59.0 °F 78% 30.14 in 15.0 mi East 12.7 mph 18.4 mph N/A Thunderstorm Thunderstorm
2:45 PM 66.2 °F 59.0 °F 78% 30.13 in 15.0 mi ESE 12.7 mph - N/A Rain , Thunderstorm Light Thunderstorms and Rain
3:00 PM 64.4 °F 60.8 °F 88% 30.15 in 20.0 mi ENE 11.5 mph - N/A Rain , Thunderstorm Light Thunderstorms and Rain
3:27 PM 64.4 °F 60.8 °F 88% 30.14 in 20.0 mi East 11.5 mph - N/A Thunderstorm Thunderstorm
4:00 PM 64.4 °F 59.0 °F 83% 30.15 in 20.0 mi East 8.1 mph - N/A Thunderstorm Thunderstorm
5:00 PM 68.0 °F 60.8 °F 78% 30.14 in 20.0 mi East 13.8 mph - N/A   Mostly Cloudy
6:00 PM 67 °F 59 °F 70% 30.14 in 15 mi East 10.4 mph - -   Partly Cloudy
6:00 PM 68.0 °F 59.0 °F 73% 30.14 in 15.0 mi East 10.4 mph - N/A   Mostly Cloudy
7:00 PM 68.0 °F 59.0 °F 73% 30.13 in 15.0 mi ESE 6.9 mph - N/A   Mostly Cloudy
7:44 PM 68.0 °F 59.0 °F 73% 30.14 in 15.0 mi ESE 6.9 mph - N/A Rain Light Rain Showers
8:00 PM 66.2 °F 59.0 °F 78% 30.14 in 15.0 mi SE 5.8 mph - N/A Rain Light Rain Showers
9:00 PM 64.4 °F 60.8 °F 88% 30.14 in 15.0 mi ESE 4.6 mph - N/A   Mostly Cloudy
10:00 PM 62.6 °F 60.8 °F 94% 30.16 in 15.0 mi SE 4.6 mph - N/A   Overcast